{"data":{"norad_id":60486,"intl_designator":"2024-149U","name":"FLOCK 4BE-36","alt_names":[],"object_type":"PAYLOAD","status":"ACTIVE","operator":null,"country":"US","launch_date":"2024-08-16","launch_site_code":"AFWTR","launch_vehicle":null,"mission":null,"orbit_class":"UNKNOWN","rcs_meters":null,"size_class":null,"mass_kg":null,"dimensions":null,"purposes":["earth_obs"],"wikipedia_slug":null,"has_3d_model":false,"image_url":null,"decayed_at":null,"tle_current":{"epoch":"2026-09-19T01:03:24.871104Z","epoch_age_seconds":140088,"freshness":"FRESH","line1":"1 60486U 24149U   26262.04403786  .00034707  00000+0  66876-3 0  9990","line2":"2 60486  97.3683 347.8501 0002670 262.1439  97.9508 15.47786987116842","mean_motion":15.47786987,"eccentricity":0.000267,"inclination_deg":97.3683,"raan_deg":347.8501,"arg_perigee_deg":262.1439,"mean_anomaly_deg":97.9508,"bstar":0.00066876,"rev_number":11684,"period_min":93.03605806837,"perigee_km":421.38539535438,"apogee_km":425.01731003472,"semimajor_km":6801.3383526945,"source":"CELESTRAK","updated_at":"2026-09-20T09:00:34.711879Z"}}}